Wind_Speed
30 30 31 31 31 30 31 30 29 29 28 29 29 29 29 30 30 30 31 31 32 32 33 33 35 36 37 38 39 40 42 43 44 45 45 46 47 47 47 47 47 46 46
28 29 30 30 30 30 30 30 29 29 29 29 29 30 30 30 30 30 32 33 33 34 34 35 36 37 37 38 39 40 41 42 43 44 44 44 44 44 44 43 43 43 43
27 27 28 29 29 30 30 30 29 29 28 29 29 29 29 30 30 31 32 32 33 34 35 35 36 36 37 38 39 40 40 41 42 42 41 40 40 40 40 39 39 39 38
26 26 27 27 27 27 26 27 27 27 29 29 29 29 29 29 30 30 31 32 32 33 33 34 34 35 36 37 37 38 38 38 38 37 36 36 36 35 35 34 34 34 33
23 23 24 25 24 24 25 26 26 26 26 27 27 27 27 28 29 29 30 31 32 32 32 32 33 34 34 34 34 34 33 33 32 32 31 31 31 30 30 31 30 30 29
21 22 22 22 23 23 23 23 23 24 24 25 25 25 26 27 28 29 29 30 30 30 31 31 31 31 31 30 30 30 29 29 28 28 28 27 27 27 28 28 27 26 26
19 19 20 20 21 21 21 21 21 21 22 23 24 25 25 26 27 27 28 28 28 28 29 28 28 28 28 28 28 27 27 26 26 25 25 25 25 25 25 25 24 23 23
17 18 18 18 18 18 18 18 19 19 20 20 21 22 23 24 25 25 25 26 26 26 26 26 26 26 26 26 26 25 24 24 23 23 23 22 22 22 22 21 21 20 20
16 17 17 17 17 16 16 16 17 17 18 18 19 20 21 21 22 22 23 24 24 24 24 23 23 23 23 23 23 22 22 21 21 21 20 20 19 19 19 19 19 18 18
14 15 15 15 15 15 15 15 16 16 17 17 18 18 19 19 20 21 21 21 21 21 20 21 21 21 21 21 21 20 20 19 19 18 17 18 18 18 18 18 17 16 16
13 13 12 13 13 14 14 14 15 15 16 16 17 17 17 18 18 18 18 18 18 18 18 19 19 19 19 19 19 18 18 17 17 16 16 16 16 16 17 16 15 15 15
12 12 12 12 13 13 13 13 13 14 14 14 14 15 15 16 16 16 16 16 16 16 16 17 17 17 18 17 17 16 16 16 15 15 15 14 14 15 14 14 13 13 13
10 10 10 11 11 11 11 11 12 12 12 12 12 12 13 13 13 13 13 14 14 15 15 15 16 16 16 16 15 15 14 14 13 13 14 13 13 13 13 12 11 11 12
7 8 8 8 9 9 9 9 9 9 10 10 10 10 10 11 11 11 12 13 13 14 14 15 15 14 14 14 14 13 13 13 12 13 13 12 12 11 10 10 9 10 9
5 6 6 7 7 7 7 7 7 8 8 8 8 9 9 9 10 10 11 12 13 13 13 13 13 13 13 13 12 12 12 11 11 11 11 11 10 9 8 8 8 8 7
4 4 5 5 5 5 5 6 6 6 7 7 8 8 8 9 9 10 11 11 11 11 12 12 11 11 11 11 11 10 10 10 9 9 9 8 7 6 6 6 6 6 6
4 5 5 5 5 6 5 5 5 6 6 7 7 7 8 8 9 10 10 11 11 11 11 11 10 10 10 9 9 9 8 8 7 7 7 6 5 5 4 4 4 4 4
6 6 6 6 6 6 6 6 6 6 7 7 7 8 8 9 10 10 11 11 11 11 10 10 9 9 9 8 8 7 7 6 6 5 5 5 4 4 4 4 4 4 4
7 7 7 7 7 7 7 7 8 8 8 8 9 9 10 10 11 11 11 11 11 10 10 9 9 9 8 7 7 7 6 5 5 5 4 4 4 3 3 4 4 4 5
9 9 9 9 9 9 9 9 9 9 10 10 10 11 11 12 12 12 12 12 12 11 11 10 9 9 8 8 7 7 6 6 5 5 5 4 4 4 4 4 4 5 5
11 11 11 11 10 10 10 10 11 11 11 11 12 12 12 13 13 13 14 14 14 13 13 12 11 10 9 9 8 8 7 7 6 6 6 6 5 5 5 5 5 5 5
12 12 12 12 12 12 12 12 12 12 12 12 13 13 13 14 14 15 15 15 15 15 15 14 13 12 11 10 10 9 9 8 8 7 7 7 6 6 6 6 6 6 6
14 14 14 14 13 13 13 13 13 13 13 13 14 14 14 15 15 15 16 16 16 16 16 15 15 14 13 12 11 11 10 10 9 8 8 7 7 7 7 6 6 6 6
15 15 15 14 14 14 14 13 13 13 13 13 13 14 14 14 15 15 16 16 17 17 16 16 16 15 15 14 13 12 11 10 10 9 8 8 8 8 7 7 7 7 6
16 15 15 14 14 14 14 14 13 13 13 13 13 13 13 14 14 15 15 15 16 16 16 16 16 15 15 14 13 12 12 11 11 10 10 9 9 8 8 7 7 7 7
16 15 15 14 14 14 14 13 13 13 13 13 13 13 13 13 13 14 14 14 15 15 15 15 15 15 14 14 13 12 12 12 11 11 10 10 9 9 8 8 8 8 8
Wind_Direction
258 259 261 263 264 264 265 266 267 267 268 267 267 268 268 269 271 272 273 274 276 277 279 279 280 282 283 283 285 286 288 289 291 292 293 294 294 294 295 295 295 295 295
260 260 263 265 265 265 265 266 265 266 266 268 269 269 270 271 272 274 275 277 279 281 283 283 284 285 285 286 287 289 290 291 292 293 293 293 294 294 295 295 296 296 297
263 264 265 263 264 266 265 265 265 265 267 268 269 271 273 273 274 277 279 280 282 283 284 285 285 286 286 287 289 289 290 291 292 292 293 294 295 295 297 298 298 299 299
264 265 264 264 265 265 264 264 266 267 266 268 271 272 273 274 276 279 281 281 282 284 284 284 285 287 287 288 289 290 290 291 292 293 294 295 296 298 298 299 300 301 302
268 268 267 266 266 267 267 268 268 268 267 267 268 270 273 275 277 279 280 282 283 284 285 287 287 288 288 290 291 291 292 293 294 295 296 298 299 299 300 303 304 304 304
273 272 270 270 270 271 271 272 272 271 271 271 273 275 277 278 279 280 282 283 284 286 287 287 287 288 290 291 292 292 293 294 295 296 297 299 300 302 304 306 307 307 308
274 276 276 274 272 272 272 273 273 274 275 276 277 276 278 279 281 283 285 286 286 286 287 287 288 289 290 291 291 292 292 293 295 297 298 300 302 304 306 309 310 310 312
276 276 275 276 274 272 272 273 275 275 276 280 279 278 280 282 283 284 286 286 287 288 288 289 290 291 291 291 292 292 293 295 295 296 298 301 303 306 308 311 312 313 315
280 278 277 278 279 281 282 285 284 283 283 284 283 282 282 284 285 287 287 288 288 288 289 289 291 291 292 292 291 292 293 294 295 297 299 302 305 308 310 313 315 315 317
284 285 283 282 282 285 288 288 287 286 285 285 284 283 284 286 289 290 291 292 292 292 292 292 293 293 293 293 293 292 293 294 295 297 300 303 306 310 312 314 316 316 317
288 290 289 286 285 285 286 287 285 285 286 287 286 286 286 288 291 293 294 294 294 294 294 295 296 296 296 296 295 294 295 296 296 296 299 303 307 309 311 313 315 316 318
288 287 287 286 286 285 286 286 287 289 290 291 290 290 292 293 294 295 297 297 297 298 299 300 299 299 300 299 298 298 298 299 298 298 300 303 306 309 309 310 313 316 320
288 288 291 291 289 288 289 289 291 292 293 294 296 296 298 300 300 302 303 303 303 304 305 305 305 305 305 304 302 302 302 301 299 299 302 303 305 307 308 310 314 318 323
296 299 303 301 299 298 296 295 296 299 302 303 306 306 307 308 309 309 309 308 308 309 309 309 308 308 308 309 308 306 305 303 301 301 303 304 305 306 307 309 312 316 322
311 318 318 319 316 311 309 309 309 310 315 317 318 318 318 318 318 317 316 316 316 316 315 314 313 312 312 312 311 309 307 304 305 306 306 307 309 308 308 310 314 321 328
351 351 349 347 344 339 334 332 332 330 329 329 329 331 330 328 327 326 327 326 325 324 322 321 320 318 317 317 317 316 314 311 310 311 311 313 314 312 314 320 324 329 339
21 20 19 16 13 11 9 4 359 356 353 352 350 348 346 343 342 341 340 338 335 333 332 329 328 327 325 324 324 322 320 319 318 320 322 323 323 324 330 337 343 349 357
38 37 36 35 33 32 30 26 23 21 18 16 13 10 5 2 359 356 353 350 347 344 342 340 339 338 336 335 335 335 336 336 335 335 337 339 341 345 351 358 5 12 20
48 46 44 41 42 43 42 40 38 35 32 30 26 23 20 16 13 10 8 4 2 360 358 356 354 352 351 352 353 354 355 356 355 355 357 360 4 10 17 22 26 29 29
55 53 52 51 52 52 51 49 45 43 42 41 38 34 30 28 25 23 21 19 18 17 15 14 13 13 13 14 14 14 16 18 19 22 26 29 33 34 34 34 34 33 30
60 59 59 58 57 57 55 53 51 49 48 46 42 40 38 36 34 33 32 32 31 29 29 29 29 29 29 29 29 29 33 37 40 43 45 43 40 40 41 38 34 30 28
63 64 63 62 61 60 59 58 56 55 53 51 48 46 44 42 41 41 39 38 37 36 36 37 37 38 38 40 41 43 45 46 47 46 45 44 44 42 38 34 30 27 25
66 66 66 65 64 63 62 61 60 58 57 54 52 50 48 46 45 43 42 41 40 39 39 40 40 41 42 43 44 45 45 44 44 45 44 43 40 34 29 27 24 22 22
68 68 67 67 66 65 63 62 60 58 56 54 52 50 48 46 45 44 43 42 42 42 42 42 42 42 43 44 44 43 42 41 41 39 36 32 30 26 22 21 21 19 18
68 68 67 67 66 64 62 60 58 56 54 52 51 49 47 45 43 42 41 41 41 41 41 41 42 41 41 40 39 39 38 37 34 32 29 25 22 19 16 15 14 11 8
67 66 65 65 64 62 60 57 54 52 50 49 47 45 43 41 39 38 37 36 36 36 36 36 36 36 35 35 34 32 31 28 26 24 21 18 16 13 10 8 6 4 1
Height
5757 5759 5760 5761 5762 5763 5764 5764 5765 5766 5767 5768 5768 5769 5769 5770 5770 5770 5771 5771 5770 5770 5769 5768 5768 5767 5766 5764 5763 5761 5759 5756 5754 5752 5750 5746 5743 5740 5736 5732 5729 5725 5721
5751 5752 5753 5754 5755 5756 5756 5757 5758 5759 5760 5760 5761 5761 5762 5762 5763 5763 5763 5763 5762 5761 5761 5760 5759 5758 5756 5755 5753 5751 5749 5747 5744 5742 5739 5736 5732 5729 5725 5721 5718 5714 5711
5744 5745 5746 5747 5748 5749 5750 5750 5751 5752 5753 5753 5754 5754 5755 5755 5756 5755 5755 5755 5754 5753 5752 5751 5750 5748 5747 5745 5744 5742 5739 5737 5734 5731 5728 5725 5722 5719 5715 5712 5708 5704 5700
5738 5739 5739 5740 5741 5742 5742 5743 5744 5745 5746 5746 5747 5747 5748 5748 5748 5748 5747 5747 5746 5744 5743 5742 5741 5739 5738 5736 5734 5732 5729 5727 5724 5722 5719 5716 5713 5710 5707 5703 5699 5695 5692
5732 5732 5733 5733 5734 5735 5736 5736 5737 5738 5738 5739 5739 5740 5740 5740 5740 5740 5739 5738 5737 5736 5735 5733 5732 5730 5728 5726 5724 5722 5720 5718 5715 5713 5710 5707 5705 5702 5699 5695 5692 5688 5684
5726 5727 5727 5728 5728 5728 5729 5730 5730 5730 5731 5732 5732 5733 5733 5733 5732 5732 5731 5730 5729 5728 5726 5725 5723 5721 5720 5718 5716 5714 5712 5710 5708 5705 5703 5700 5698 5695 5692 5688 5685 5682 5678
5721 5721 5722 5722 5722 5723 5723 5723 5724 5724 5725 5725 5725 5726 5726 5725 5725 5724 5723 5722 5721 5720 5718 5717 5715 5714 5712 5710 5708 5707 5705 5702 5701 5699 5696 5694 5691 5688 5686 5682 5679 5676 5673
5716 5716 5717 5717 5717 5717 5717 5718 5718 5718 5719 5719 5719 5719 5719 5719 5718 5717 5716 5715 5714 5712 5711 5710 5708 5706 5705 5703 5701 5699 5698 5696 5694 5692 5690 5688 5685 5683 5680 5678 5674 5671 5668
5712 5712 5712 5713 5713 5713 5713 5713 5713 5714 5714 5714 5713 5713 5713 5712 5712 5711 5710 5708 5707 5706 5705 5703 5701 5700 5698 5696 5695 5693 5691 5690 5688 5686 5684 5682 5680 5678 5675 5673 5670 5667 5665
5708 5708 5708 5708 5709 5709 5709 5709 5709 5709 5709 5709 5708 5708 5707 5707 5706 5705 5704 5702 5701 5700 5699 5697 5695 5694 5692 5690 5689 5687 5686 5684 5683 5681 5679 5677 5675 5673 5671 5669 5666 5664 5661
5705 5705 5705 5705 5705 5705 5705 5705 5705 5704 5704 5704 5703 5703 5702 5702 5701 5700 5698 5697 5696 5695 5693 5692 5690 5688 5687 5685 5683 5682 5680 5679 5677 5676 5675 5673 5671 5669 5667 5665 5663 5661 5658
5702 5702 5702 5702 5701 5701 5701 5701 5701 5700 5700 5699 5699 5698 5697 5697 5696 5695 5694 5693 5691 5690 5689 5687 5685 5684 5682 5680 5678 5677 5676 5674 5673 5672 5670 5669 5667 5666 5664 5662 5660 5658 5656
5699 5699 5698 5698 5698 5698 5698 5698 5697 5697 5696 5696 5695 5694 5694 5693 5692 5691 5690 5689 5687 5686 5684 5683 5681 5679 5678 5676 5674 5673 5671 5670 5669 5668 5666 5665 5664 5662 5661 5659 5657 5655 5653
5696 5696 5696 5695 5695 5695 5695 5695 5695 5694 5694 5693 5692 5692 5691 5690 5689 5688 5687 5685 5684 5682 5681 5679 5677 5676 5674 5672 5671 5669 5668 5667 5665 5664 5663 5662 5661 5659 5658 5656 5655 5653 5652
5694 5694 5694 5693 5693 5693 5693 5692 5692 5692 5691 5691 5690 5689 5688 5688 5687 5685 5684 5683 5681 5679 5678 5676 5674 5673 5671 5670 5668 5666 5665 5664 5663 5661 5660 5659 5658 5657 5656 5654 5653 5651 5650
5694 5694 5693 5693 5692 5692 5691 5691 5690 5690 5690 5689 5689 5688 5687 5686 5685 5683 5682 5680 5679 5677 5675 5674 5672 5670 5669 5667 5666 5664 5663 5661 5660 5659 5658 5657 5656 5655 5654 5653 5651 5650 5649
5694 5694 5694 5693 5692 5692 5691 5691 5690 5690 5689 5688 5688 5687 5686 5685 5684 5682 5680 5678 5677 5675 5673 5672 5670 5668 5667 5665 5664 5662 5661 5660 5659 5658 5657 5655 5654 5654 5653 5652 5651 5649 5648
5695 5695 5694 5694 5693 5693 5692 5691 5691 5690 5690 5689 5688 5687 5686 5684 5683 5681 5679 5678 5676 5674 5672 5670 5669 5667 5665 5664 5662 5661 5660 5659 5658 5657 5656 5655 5654 5653 5652 5651 5650 5649 5648
5697 5696 5696 5695 5695 5694 5694 5693 5692 5691 5691 5690 5689 5688 5686 5685 5683 5681 5679 5677 5675 5673 5671 5670 5668 5666 5665 5663 5662 5660 5659 5658 5657 5656 5655 5654 5653 5653 5652 5651 5650 5649 5649
5699 5698 5698 5697 5697 5696 5695 5695 5694 5693 5692 5691 5690 5689 5688 5686 5684 5682 5680 5678 5676 5674 5672 5670 5668 5666 5665 5663 5662 5661 5659 5658 5657 5656 5655 5655 5654 5653 5652 5652 5651 5650 5649
5702 5701 5700 5700 5699 5698 5698 5697 5696 5695 5694 5693 5692 5691 5689 5688 5686 5684 5682 5680 5678 5675 5673 5671 5669 5667 5666 5664 5663 5661 5660 5659 5658 5657 5656 5656 5655 5654 5653 5652 5651 5651 5650
5705 5704 5703 5703 5702 5701 5701 5700 5699 5698 5697 5696 5695 5693 5692 5690 5689 5687 5685 5682 5680 5678 5675 5673 5671 5669 5668 5666 5665 5663 5662 5661 5660 5659 5658 5657 5656 5655 5654 5653 5652 5651 5650
5708 5708 5707 5706 5705 5705 5704 5703 5702 5701 5700 5699 5698 5697 5695 5693 5692 5690 5688 5686 5683 5681 5679 5676 5674 5672 5670 5669 5667 5666 5664 5663 5662 5661 5660 5659 5658 5657 5656 5654 5653 5652 5651
5712 5712 5711 5710 5709 5708 5708 5707 5706 5705 5704 5702 5701 5700 5698 5697 5695 5693 5691 5689 5687 5684 5682 5680 5678 5676 5674 5672 5670 5668 5667 5665 5664 5663 5662 5660 5659 5658 5657 5656 5654 5653 5652
5716 5715 5715 5714 5713 5712 5711 5710 5709 5708 5707 5706 5704 5703 5702 5700 5698 5696 5694 5692 5690 5688 5686 5684 5681 5679 5677 5675 5673 5672 5670 5668 5667 5665 5663 5662 5661 5659 5658 5657 5655 5654 5652
5720 5719 5719 5718 5717 5716 5715 5714 5713 5712 5710 5709 5707 5706 5704 5703 5701 5699 5698 5696 5693 5691 5689 5687 5685 5683 5680 5678 5676 5674 5673 5671 5669 5667 5665 5664 5662 5661 5659 5657 5656 5654 5653